Theta_e
333 332 330 331 334 335 336 339 338 338 336 337 333 335 331 332 340 339 340 340 340 340 341 341 341 341 342 341 340 341 341 340 339 336 336 338 339 339 339 339 340 341 342
332 330 330 330 333 335 336 337 338 337 334 336 337 335 329 333 338 338 339 339 339 339 339 340 340 339 338 338 338 340 338 336 336 336 337 338 337 338 336 334 336 339 339
330 330 330 330 332 334 335 334 337 334 333 333 334 338 338 335 337 335 336 338 337 338 338 338 338 338 336 336 337 338 336 336 337 337 337 338 338 340 339 337 336 337 337
330 333 334 335 332 332 336 335 333 333 332 334 337 337 336 336 336 336 335 335 333 333 336 336 336 335 334 332 331 334 335 335 335 335 335 336 338 338 338 339 339 338 338
333 335 333 335 336 335 334 334 333 330 332 335 337 336 337 335 334 332 332 332 330 330 332 333 333 331 332 329 331 333 333 333 333 331 331 331 333 335 336 336 337 338 337
333 333 333 333 333 332 333 333 334 333 332 335 334 334 331 329 327 328 327 329 328 328 329 330 329 329 328 329 329 330 329 331 329 328 328 328 329 331 332 332 333 334 335
333 332 332 332 331 330 330 327 328 333 332 330 328 327 326 322 328 326 326 326 326 327 327 327 326 325 326 328 327 327 328 328 328 327 326 325 327 327 327 327 329 331 333
331 333 331 331 330 329 328 327 326 327 328 325 323 326 325 325 324 324 323 323 323 323 324 324 323 322 326 328 326 324 322 322 323 323 322 323 324 324 323 323 325 328 329
328 332 331 328 329 329 328 327 326 325 323 323 325 324 320 322 322 321 321 320 320 319 319 318 317 321 324 324 322 318 317 317 317 318 318 319 320 321 321 322 323 322 323
327 330 330 329 328 327 326 325 323 325 324 320 322 322 321 319 319 318 317 317 316 316 315 314 312 313 320 319 315 311 307 309 311 313 314 317 318 318 318 319 320 321 322
325 327 328 328 328 326 323 323 321 317 317 322 321 319 318 316 314 313 313 312 311 311 310 308 303 298 302 303 302 302 304 306 309 309 313 315 318 321 322 322 322 321 320
323 324 325 326 326 326 323 322 321 321 320 319 318 315 312 311 310 310 309 308 308 306 303 297 297 297 297 297 298 299 303 308 311 317 318 320 321 320 319 318 318 318 317
322 322 323 324 324 324 323 322 320 319 317 315 310 309 308 308 307 306 303 301 296 295 295 295 296 296 296 296 297 298 303 306 310 316 318 320 318 316 314 313 313 313 313
321 321 322 322 322 322 321 320 320 317 315 313 310 305 306 305 302 298 298 297 295 295 295 295 294 294 295 296 296 297 302 307 309 314 314 314 313 312 312 312 311 310 310
321 320 320 322 320 320 317 317 317 316 313 310 308 304 302 299 296 296 296 294 294 294 294 294 294 294 294 295 295 297 300 306 309 311 311 309 308 307 307 307 307 308 308
321 319 319 320 320 319 317 312 312 310 307 306 304 300 298 296 295 295 294 294 294 294 293 293 293 293 293 294 293 295 298 303 305 306 306 304 303 302 302 303 303 304 304
321 319 318 318 317 316 314 310 307 305 301 300 298 297 296 295 295 294 293 293 293 292 292 292 292 292 292 293 293 293 294 296 300 300 299 300 295 293 296 298 298 299 300
324 320 318 317 315 313 312 309 305 302 300 298 297 296 296 295 295 294 294 293 293 293 293 292 293 293 293 293 293 292 292 293 293 293 293 292 291 291 291 289 291 293 296
323 321 318 316 313 311 309 306 303 301 299 297 297 296 295 295 294 294 294 293 293 293 293 293 293 293 293 293 293 293 292 292 292 292 292 291 291 290 290 291 290 290 292
321 321 318 315 312 310 307 304 300 299 297 297 295 295 294 295 294 294 294 293 292 292 292 292 292 293 293 292 292 292 292 292 291 291 291 290 290 289 289 289 289 289 290
319 318 318 313 311 308 304 301 299 298 296 295 295 294 294 293 293 293 293 292 292 292 292 292 291 291 292 291 292 292 291 291 291 291 290 290 289 289 289 288 288 288 288
316 317 316 311 308 307 303 300 298 297 295 295 293 292 292 292 292 293 292 292 292 292 291 292 292 292 291 292 293 293 290 290 291 290 290 290 290 289 289 288 288 288 287
313 314 314 311 306 305 302 300 298 295 293 291 291 291 290 291 291 291 291 291 291 291 290 290 291 291 290 290 291 292 291 291 290 291 290 290 289 289 289 288 287 287 287
306 309 311 310 307 304 300 299 297 293 291 291 290 290 289 290 290 290 290 290 290 290 290 290 290 291 291 290 289 289 290 290 289 288 290 289 289 288 288 288 287 287 287
302 304 306 307 307 303 300 299 297 293 292 292 290 288 288 288 288 289 289 289 289 289 289 289 289 289 290 290 290 289 289 288 289 288 287 288 289 288 288 288 287 287 286
296 300 303 304 304 303 301 299 297 294 293 291 289 288 287 287 287 287 288 288 288 288 288 287 288 288 289 289 289 288 288 288 288 287 285 286 287 288 288 287 287 287 286
Wind_Speed
6 3 13 12 10 7 8 7 9 10 10 11 13 13 13 13 13 14 13 12 14 14 15 16 17 20 21 20 20 20 21 21 22 23 21 21 21 20 20 19 21 23 21
11 4 7 11 11 8 7 8 7 9 11 14 14 13 13 15 14 14 13 15 15 16 15 17 19 21 21 21 20 21 22 22 21 21 21 21 21 19 19 20 21 20 21
6 4 3 7 10 8 9 9 8 9 13 16 17 18 19 20 18 18 16 16 17 15 16 17 20 22 20 19 21 20 19 19 21 22 23 21 18 19 19 20 20 19 19
7 6 4 6 9 9 7 11 13 12 14 16 18 20 22 23 24 24 20 18 16 15 18 16 20 20 19 20 22 21 22 23 23 23 22 23 22 20 20 20 20 19 19
10 7 5 7 10 9 9 11 14 16 17 17 20 22 25 25 26 26 23 18 17 16 17 19 19 17 17 20 21 23 22 17 18 20 20 19 20 19 19 18 19 21 18
9 12 12 14 13 10 8 6 6 15 14 7 23 31 28 25 23 20 19 17 17 16 16 15 15 17 16 19 21 22 22 19 21 18 15 15 17 16 16 16 14 15 17
10 13 13 13 15 13 12 14 5 16 18 22 25 27 23 21 20 19 20 16 17 16 17 17 16 16 17 19 20 20 20 19 17 17 16 16 15 15 15 16 16 16 15
9 12 11 14 14 14 16 13 23 22 26 23 24 26 26 24 22 20 20 16 17 17 16 16 15 15 17 18 18 18 18 16 18 12 11 15 14 14 14 15 16 16 16
10 14 14 16 17 18 20 22 27 27 26 23 19 20 21 21 21 20 17 16 16 15 16 15 14 14 15 16 16 16 16 15 16 18 13 14 13 13 14 14 15 15 15
12 16 16 18 20 19 19 22 26 27 28 25 17 17 19 22 21 17 16 16 16 15 15 14 13 12 13 14 14 15 17 15 12 9 12 14 13 13 14 14 14 15 16
14 16 19 19 21 20 20 21 23 24 21 24 24 22 20 21 21 18 17 16 16 15 15 14 14 16 13 14 14 13 14 14 13 12 15 13 15 16 17 17 16 16 15
18 17 20 20 23 22 21 21 23 26 28 26 25 21 21 19 18 20 19 16 15 15 13 13 14 11 11 12 13 14 15 15 15 19 17 15 17 17 16 16 15 14 14
23 18 21 25 24 24 25 23 23 23 20 23 23 22 19 17 16 16 16 13 11 12 11 10 9 11 11 12 11 15 17 13 14 20 17 18 17 16 14 14 14 13 13
26 23 22 26 29 26 23 23 23 20 21 20 16 16 16 15 12 13 11 10 9 9 10 8 11 12 13 13 13 13 17 16 14 18 19 17 16 14 15 13 13 12 11
26 29 29 30 29 26 25 23 21 20 18 18 18 16 14 15 14 13 12 13 12 11 10 13 10 12 12 12 14 14 17 13 14 17 19 16 16 16 13 13 12 12 11
28 31 32 32 32 27 26 23 24 22 18 18 18 16 15 14 15 16 15 13 13 12 12 12 11 11 14 12 13 12 15 15 10 13 18 16 15 14 12 11 11 10 10
31 32 32 32 31 30 28 25 23 22 21 19 19 17 16 15 16 15 15 13 11 11 12 11 12 11 12 12 14 13 13 14 15 9 8 7 6 7 10 10 9 10 10
28 34 35 29 31 29 28 28 26 24 23 22 22 22 19 17 17 17 16 15 14 13 11 12 13 12 13 11 13 11 12 12 11 11 10 8 6 5 4 5 6 7 9
28 30 33 31 31 30 27 26 25 26 23 23 22 22 22 20 18 18 17 16 15 15 13 14 13 11 12 13 12 12 10 11 10 9 10 9 8 6 2 5 6 8 8
26 27 30 31 30 29 26 25 22 22 21 23 24 25 25 23 21 20 18 17 16 15 14 12 15 14 13 13 11 10 9 9 9 8 7 5 5 4 2 3 3 4 6
20 25 28 29 31 29 27 27 26 27 26 25 25 26 25 24 22 21 20 19 18 17 16 13 13 14 14 12 12 7 6 6 8 9 7 5 3 3 2 4 3 4 3
12 20 24 27 30 28 25 23 23 27 23 24 23 22 23 24 24 22 20 19 18 20 20 19 18 15 9 15 6 9 3 3 8 8 8 7 4 1 1 4 4 6 5
6 15 18 25 26 26 23 21 20 19 18 17 22 24 24 25 23 22 21 21 20 18 17 16 15 11 9 8 5 2 2 2 5 10 9 8 6 3 2 3 3 5 5
16 5 11 20 26 25 22 23 25 20 18 16 28 26 24 25 25 22 20 20 17 16 17 16 16 13 9 8 5 3 3 3 3 1 7 9 8 6 5 2 3 2 4
12 8 2 5 20 23 24 22 21 21 18 17 23 24 24 22 23 22 20 19 19 17 16 16 16 15 11 13 8 7 5 4 3 2 3 4 6 7 4 4 3 2 3
15 10 3 2 7 15 21 19 20 19 18 20 24 27 27 24 22 21 20 18 17 15 14 12 11 12 13 12 10 8 6 3 3 3 2 3 4 3 2 6 4 4 4
Wind_Direction
147 187 185 185 173 164 158 156 175 177 178 178 179 164 151 128 116 112 116 113 108 102 107 114 114 108 102 102 100 101 100 102 103 101 96 94 90 85 87 92 92 87 85
154 162 194 191 185 177 174 172 178 202 193 180 167 157 153 142 136 128 123 114 104 97 101 108 105 101 103 104 101 96 100 100 99 98 97 92 89 86 85 87 86 82 83
123 175 157 188 198 191 185 188 190 196 188 185 168 155 152 150 144 140 127 104 99 95 101 106 105 101 100 100 101 97 96 99 92 89 84 84 89 85 86 85 84 81 82
135 121 162 213 197 203 209 209 204 197 191 189 175 162 154 146 137 128 113 97 100 102 95 106 103 102 95 104 106 94 93 104 103 97 92 82 74 79 81 81 85 82 83
113 123 106 110 155 160 194 215 219 206 195 191 172 156 145 131 119 109 107 104 113 122 100 94 97 103 96 109 112 103 99 95 95 92 85 78 71 68 69 72 76 78 81
107 125 104 106 134 143 106 109 176 210 191 159 176 126 101 101 98 112 112 104 110 110 111 115 121 96 105 116 117 110 96 100 89 87 82 84 75 70 70 75 81 84 79
121 126 121 107 102 118 123 85 95 182 173 109 92 104 103 95 100 106 108 116 110 107 105 104 105 105 116 121 120 111 99 91 92 91 98 87 77 74 71 70 71 74 77
140 132 136 124 117 107 108 115 93 98 100 95 96 99 105 111 114 111 106 114 111 106 104 105 103 108 123 123 120 113 101 99 88 90 93 87 77 74 73 73 73 75 73
143 129 127 131 123 114 114 110 107 110 108 101 102 106 111 112 104 99 110 109 104 107 106 102 104 117 129 129 125 115 110 114 109 103 99 89 77 77 76 78 79 76 74
145 142 137 136 136 129 123 122 121 116 116 119 120 110 113 111 113 115 118 116 113 108 100 102 99 116 130 129 124 114 99 90 94 107 100 88 84 82 84 82 80 80 79
156 163 150 151 146 144 133 131 128 129 128 136 142 148 138 124 131 133 122 115 109 108 108 102 99 92 96 113 116 117 115 107 101 87 92 95 97 92 90 88 89 85 83
160 167 165 164 158 154 146 149 146 142 140 144 146 146 135 142 143 139 125 108 110 112 110 106 96 92 109 109 109 106 106 103 101 96 93 107 103 95 87 83 81 80 75
169 171 175 164 165 162 156 158 155 152 146 143 141 138 152 152 145 140 121 110 105 95 103 107 114 120 114 114 116 119 113 104 115 107 101 102 99 91 87 83 82 79 76
179 166 181 174 167 168 168 167 162 159 157 160 159 160 157 151 143 135 130 133 130 125 116 113 112 109 115 113 109 116 119 109 120 120 113 102 97 94 91 87 84 79 74
175 179 181 183 180 178 174 172 171 176 175 173 174 172 167 161 151 146 149 156 153 140 138 125 117 110 109 111 116 115 119 107 127 128 124 114 96 91 86 84 82 80 73
178 186 182 184 191 190 185 179 180 180 179 179 179 175 170 167 163 163 162 162 153 149 141 135 133 127 113 119 115 121 129 110 122 142 139 115 104 93 87 84 83 78 69
183 183 187 184 188 188 186 184 182 178 178 175 175 173 171 175 168 162 156 152 146 143 137 135 128 126 123 119 119 122 125 134 115 123 140 138 103 100 89 85 74 68 60
182 179 185 187 188 188 182 181 178 177 180 176 175 171 176 172 169 162 160 157 149 141 136 131 132 130 126 128 126 127 130 133 145 145 133 127 104 81 69 92 77 65 57
191 180 179 183 184 187 186 182 186 183 179 179 180 180 175 171 170 169 169 162 158 151 154 151 140 140 141 137 137 130 135 140 139 150 164 171 167 157 113 68 50 47 52
188 185 179 181 182 183 183 181 181 181 178 183 182 182 180 177 174 175 174 165 163 157 155 158 156 148 147 138 132 139 145 145 149 162 157 158 155 125 74 38 72 48 38
182 185 182 175 181 178 174 171 170 172 177 184 187 187 184 177 175 181 175 169 168 164 161 161 152 152 142 144 128 122 140 162 167 167 164 177 173 139 35 5 18 357 359
166 179 177 175 182 183 179 176 173 175 184 190 188 187 185 180 180 181 178 171 171 169 168 169 164 156 146 169 179 161 146 178 193 191 181 186 198 208 94 325 350 339 351
126 190 181 176 181 185 182 177 172 171 173 180 187 185 185 185 184 184 179 174 181 180 172 173 173 174 151 170 183 129 82 192 145 185 195 200 206 185 201 299 329 335 348
18 66 195 181 181 186 179 182 174 172 166 192 190 191 186 186 185 183 181 178 174 177 174 173 174 166 171 161 147 166 118 101 147 112 179 186 204 190 230 250 308 321 331
36 37 102 169 173 179 183 190 186 174 181 193 189 188 188 186 186 180 179 178 175 174 171 171 170 167 152 165 169 156 144 123 126 127 163 175 210 195 198 290 294 257 292
46 58 124 148 179 182 184 194 194 186 184 180 184 184 188 186 183 183 178 177 173 168 171 163 155 162 156 155 158 145 142 140 134 116 112 101 143 167 225 270 231 209 255